Location: *
(47.6569°N, 7.4256°E)
Time: 02:52:10
(UTC+00:00)

SL-16 R/B - Pass Details

Date: 14 December 2019
Orbit: 840 x 849 km, 71.0° (Epoch: 22 January)

Event Time Altitude Azimuth Distance (km) Brightness Sun altitude
Rises 16:24:01 0° 181° (S) 3,393 5.7 -7.4°
Reaches altitude 10° 16:26:35 10° 174° (S) 2,463 4.9 -7.8°
Maximum altitude 16:31:47 39° 107° (ESE) 1,251 2.8 -8.6°
Drops below altitude 10° 16:37:02 10° 40° (NE) 2,484 4.1 -9.4°
Enters shadow 16:37:26 - 39° (NE) 2,627 4.2 -9.4°
